User: anonymous   Login
Location: Bats
(43.6587°N, 0.4584°W)
Time: 23:28:30
(UTC+00:00)
Language:

BREEZE-M DEB (TANK) - Orbit

View from above orbital plane
View from above orbital plane
View from above satellite
View from above satellite

Ground track
Ground track

The orbit is defined by the following mean orbital elements,

1 36794U          26066.90660118 +.00000000 +00000-0 +15013-2 0 00005
2 36794  49.5024 294.0642 5434282  66.4810 340.4861  4.93733369    08
Epoch (UTC): 07 March 2026 21:45:30
Eccentricity: 0.5434282
inclination: 49.5024°
perigee height: 273 km
apogee height: 16107 km
right ascension of ascending node: 294.0642°
argument of perigee: 66.4810°
revolutions per day: 4.93733369
mean anomaly at epoch: 340.4861°

The dashed part of the orbit path shows where the satellite is in the earth's shadow,  

DLR